Change the Weather History Date:

Friday, April 15, 2011

  Actual Average Record
Temperature  
Mean Temperature 54 °F 48 °F  
Max Temperature 67 °F 59 °F 84 °F (1941)
Min Temperature 41 °F 38 °F 21 °F (1943)
Degree Days  
Heating Degree Days 11 17  
Month to date heating degree days 271 291  
Since 1 July heating degree days 6093 5815  
Cooling Degree Days 0 0  
Month to date cooling degree days 0 0  
Year to date cooling degree days 0 1  
Growing Degree Days 4 (Base 50)    
Moisture  
Dew Point 37 °F    
Average Humidity 54    
Maximum Humidity 73    
Minimum Humidity 34    
Precipitation  
Precipitation 0.00 in 0.11 in 1.56 in (1972)
Month to date precipitation 3.01 1.73  
Year to date precipitation 15.33 9.37  
Snow  
Snow 0.00 in 0.10 in - ()
Month to date snowfall 0.6 2.4  
Since 1 July snowfall 118.7 62.1  
Snow Depth 0.00 in    
Sea Level Pressure  
Sea Level Pressure 30.11 in    
Wind  
Wind Speed 16 mph (East)    
Max Wind Speed 28 mph    
Max Gust Speed 39 mph    
Visibility 10 miles    
Events      
T = Trace of Precipitation, MM = Missing Value Source: NWS Daily Summary

Daily Weather History Graph

Daily Weather History Graph

Search for Another Location

Airport or City:

Trip Planner

Search our weather history database for the weather conditions in past years. The results will help you decide how hot, cold, wet, or windy it might be!

Date:

Astronomy

Apr. 15, 2011 Rise Set
Actual Time 6:43 AM EDT 8:02 PM EDT
Civil Twilight 6:15 AM EDT 8:31 PM EDT
Nautical Twilight 5:40 AM EDT 9:05 PM EDT
Astronomical Twilight 5:04 AM EDT 9:41 PM EDT
Moon 5:27 PM EDT (4/15) 4:53 AM EDT (4/15)
Length of Visible Light 14h 16m
Length of Day
13h 18m
Waxing Gibbous, 91% of the Moon is Illuminated
Apr 15
Waxing Gibbous
Apr 17
Full
Apr 24
Last Quarter
May 3
New
May 10
First Quarter

Hourly Weather History & Observations

Time (EDT) Temp. Windchill Dew Point Humidity Pressure Visibility Wind Dir Wind Speed Gust Speed Precip Events Conditions
12:51 AM 45.0 °F 39.3 °F 34.0 °F 65% 30.22 in 10.0 mi NE 11.5 mph - N/A   Mostly Cloudy
1:51 AM 44.1 °F 38.6 °F 34.0 °F 68% 30.22 in 10.0 mi NE 10.4 mph - N/A   Overcast
2:51 AM 43.0 °F 37.7 °F 34.0 °F 71% 30.22 in 10.0 mi ENE 9.2 mph - N/A   Overcast
3:51 AM 43.0 °F 38.2 °F 34.0 °F 71% 30.22 in 10.0 mi ENE 8.1 mph - N/A   Overcast
4:51 AM 42.1 °F 35.7 °F 34.0 °F 73% 30.20 in 10.0 mi ENE 11.5 mph - N/A   Clear
5:51 AM 42.1 °F 36.6 °F 34.0 °F 73% 30.21 in 10.0 mi ENE 9.2 mph - N/A   Mostly Cloudy
6:51 AM 41.0 °F 33.9 °F 34.0 °F 76% 30.22 in 10.0 mi ENE 12.7 mph - N/A   Scattered Clouds
7:51 AM 43.0 °F 35.7 °F 34.0 °F 71% 30.23 in 10.0 mi East 15.0 mph - N/A   Partly Cloudy
8:51 AM 45.0 °F 38.2 °F 34.0 °F 65% 30.23 in 10.0 mi East 15.0 mph - N/A   Partly Cloudy
9:51 AM 48.9 °F - 35.1 °F 59% 30.22 in 10.0 mi East 15.0 mph 23.0 mph N/A   Clear
10:51 AM 52.0 °F - 36.0 °F 54% 30.20 in 10.0 mi East 16.1 mph 23.0 mph N/A   Clear
11:51 AM 55.9 °F - 37.0 °F 49% 30.17 in 10.0 mi East 13.8 mph 24.2 mph N/A   Scattered Clouds
12:51 PM 60.1 °F - 37.9 °F 44% 30.14 in 10.0 mi ESE 18.4 mph 23.0 mph N/A   Scattered Clouds
1:51 PM 63.0 °F - 39.0 °F 41% 30.12 in 10.0 mi ESE 16.1 mph 26.5 mph N/A   Mostly Cloudy
2:51 PM 64.0 °F - 39.0 °F 40% 30.08 in 10.0 mi ESE 20.7 mph 28.8 mph N/A   Overcast
3:51 PM 66.0 °F - 39.0 °F 37% 30.04 in 10.0 mi ESE 17.3 mph 24.2 mph N/A   Overcast
4:51 PM 66.0 °F - 37.0 °F 34% 30.01 in 10.0 mi East 18.4 mph 25.3 mph N/A   Overcast
5:51 PM 64.9 °F - 37.0 °F 36% 29.99 in 10.0 mi ESE 16.1 mph 26.5 mph N/A   Overcast
6:51 PM 64.4 °F - 39.2 °F 40% 29.98 in 10.0 mi ESE 21.9 mph 29.9 mph N/A   Overcast
7:51 PM 62.1 °F - 39.0 °F 43% 29.99 in 10.0 mi ESE 19.6 mph 26.5 mph N/A   Overcast
8:51 PM 60.1 °F - 39.9 °F 47% 29.98 in 10.0 mi ESE 19.6 mph - N/A   Overcast
9:51 PM 59.0 °F - 41.0 °F 51% 29.96 in 10.0 mi ESE 20.7 mph 33.4 mph N/A   Overcast
10:51 PM 57.9 °F - 42.1 °F 56% 29.93 in 10.0 mi ESE 23.0 mph 36.8 mph N/A   Overcast
11:51 PM 57.0 °F - 42.1 °F 57% 29.90 in 10.0 mi ESE 26.5 mph 39.1 mph N/A   Overcast